Terug naar catalogus

STARLINK-32677

ActiefCommunicatieVLEO
NORAD 63020·PAYLOAD·🇺🇸 United States

Gelanceerd Feb 15, 2025 vanaf Cape Canaveral Space Force Station

Loading…

Volgende Passages (komende 24 uur)

TLE

VersSource: CelesTrak SupGP

Epoch: Sep 15, 2026, 03:36 UTC

1 63020C 25032R   26258.15048611  .00052644  00000+0  19064-2 0  2582
2 63020  43.0026 346.2021 0001761 262.0577 115.3477 15.27557076    14

Volg STARLINK-32677 in realtime met AllMySat

Download on the App Store